Погода в Наньчане

Китай     28°40′29″N   115°55′49″E
темп.,
°C
ветер,
м/с
пор.,
м/с
влажн.,
%
обл.,
%
осадки,
мм/ч
давл.,
гПа
погр.,
м
13 апреля, вт
вт1323:00+16с1191100 0.0 101821
02:00+16ссз1193100 0.0 101736
05:00+16с119355 0.0 101715
08:00+17с128620 0.0 1018195
11:00+21ссв4466100 0.0 10181156
14:00+21с3463100 0.1 10161021
17:00+19ссв1282100 0.6 1016115
20:00+18св239276 2.4 1017147
14 апреля, ср
ср1423:00+17ссв2493100 0.8 1018276
02:00+17с2493100 1.8 1018223
05:00+17ссв4891100 0.6 1017456
08:00+16с4791100 0.8 1018502
11:00+15с5995100 6.1 1019508
14:00+15с5893100 7.8 1017514
17:00+15с3693100 0.2 1016392
20:00+15с2394100 0.3 1017219
15 апреля, чт
чт1523:00+15с1295100 1.8 1017119
02:00+15ююв0094100 1.9 101558
05:00+14ююз1194100 0.0 101542
08:00+16з1188100 0.0 1016282
11:00+16юз1187100 0.0 1017276
14:00+18ююз1176100 0.1 1015705
17:00+19ю2275100 0.0 1015583
20:00+17ююз2385100 0.0 1018106
16 апреля, пт
пт1623:00+16юз22925 0.0 101955
02:00+15ююз22957 0.0 101857
05:00+15зюз11955 0.0 101811
08:00+17ссв128716 0.0 1019246
11:00+22ссв356512 0.0 10201167
14:00+23ссв4550100 0.0 10191392
17:00+20ссв3558100 0.0 1018207
20:00+19с2260100 0.0 102061
17 апреля, сб
сб1723:00+18ссз226441 0.0 102020
02:00+16с226983 0.0 101927
05:00+15с22745 0.0 101926
08:00+18с23655 0.0 1021194
11:00+23ссв454798 0.0 1022845
14:00+24ссв5639100 0.0 10201259
17:00+23ссв3543100 0.0 1020527
20:00+19с5965100 0.0 1021265